[[{"header":{"parameterUnit":"m.s-1","parameterCategory":2,"la1":30.2991,"la2":30.254,"lo1":-89.0895,"lo2":-89.0444,"dy":0.0017,"dx":0.0017,"nx":28,"ny":28,"refTime":"2025-04-04T09:00:00:Z","depth":"0","parameterNumber":2,"parameterNumberName":"U-component_of_CURRENTS"},"data":[0,0,0,0,0,0,0,0,0,0,0,0,0,0,0,0,0,0,0,0,0,0,0,0,0,0,0,0,0,0,0,0,0,0,0,0,0,0,0,0,0,0,0,0,0,0,0,0,0,0,0,0,0,0,0,0,0,0,0.2314,0.2314,0,0.2332,0.2332,0.2332,0.2325,0.2325,0.2324,0.2324,0.2335,0.2336,0.2337,0,0,0,0,0,0,0,0,0,0,0,0,0,0.2295,0.2295,0.2314,0.2314,0.2315,0.2332,0.2332,0.2332,0.2325,0.2325,0.2324,0.2324,0.2335,0.2336,0.2337,0,0,0,0,0,0,0,0,0,0,0,0,0,0.2306,0.2295,0.2314,0.2314,0.2314,0.2332,0.2332,0.2332,0.2325,0.2325,0.2324,0.2324,0.2335,0.2336,0.2337,0.2352,0,0,0.234,0.234,0,0,0,0,0,0,0,0,0.2305,0.2306,0.2314,0.2314,0.2314,0.2327,0.2329,0.2339,0.2325,0.232,0.2324,0.2323,0.2333,0.2334,0.2337,0.2353,0.2353,0.234,0.234,0.2341,0.2341,0,0,0,0,0,0,0,0.2304,0.2306,0.232,0.2314,0.2314,0.232,0.2321,0.2331,0.2328,0.232,0.232,0.2324,0.2333,0.2336,0.2337,0.2354,0.234,0.234,0.2341,0.2341,0.2402,0.2403,0,0,0,0,0,0,0.2304,0.2305,0.232,0.2321,0.2309,0.2321,0.2322,0.2322,0.2328,0.2329,0.2324,0.2323,0.2335,0.2336,0.2338,0.2369,0.2341,0.2341,0.2342,0.2401,0.2402,0.2403,0,0,0,0,0,0,0.2303,0.2305,0.2319,0.2314,0.2317,0.2322,0.2323,0.2323,0.2328,0.2331,0.2332,0.2329,0.2335,0.2336,0.2353,0.2369,0.2342,0.2343,0.24,0.2401,0.2403,0.2423,0,0,0,0,0,0,0.2302,0.2304,0.2305,0.2314,0.2317,0.2332,0.2323,0.2324,0.2332,0.2331,0.2336,0.2336,0.2334,0.2352,0.2354,0.2369,0.2343,0.2398,0.24,0.2402,0.2421,0.2425,0.2429,0,0,0,0,0,0.2302,0.2304,0.2305,0.2307,0.2318,0.2332,0.2334,0.2336,0.2332,0.2338,0.2343,0.2336,0.2366,0.2353,0.2356,0.2372,0.2397,0.24,0.2402,0.242,0.2425,0.2429,0,0,0,0,0,0,0.2295,0.2304,0.2305,0.231,0.2322,0.2331,0.2337,0.234,0.2349,0.2348,0.2348,0.2349,0.2372,0.2371,0.2357,0.2397,0.2381,0.2384,0.2394,0.2399,0.2403,0.2403,0.2344,0,0,0,0,0,0.2296,0.2299,0.2311,0.2316,0.2322,0.2331,0.2337,0.2341,0.235,0.2353,0.2358,0.2367,0.2385,0.239,0.2403,0.2422,0.243,0.2435,0.2439,0.2442,0.2446,0.2481,0.2489,0.2411,0.2411,0.2411,0,0,0.2294,0.23,0.2302,0.2315,0.2323,0.2338,0.2333,0.2346,0.2359,0.2354,0.2372,0.2382,0.2394,0.2417,0.2427,0.2416,0.2468,0.2445,0.2448,0.245,0.2485,0.2492,0.2499,0.2413,0.2412,0.2412,0,0,0.2297,0.23,0.2306,0.2319,0.2336,0.2345,0.235,0.2364,0.237,0.2391,0.2394,0.2415,0.2433,0.2447,0.2457,0.2491,0.249,0.2495,0.2511,0.2546,0.2552,0.2558,0.2572,0.2579,0.2493,0.2493,0.2493,0,0.2296,0.2305,0.2312,0.2326,0.2336,0.2349,0.2363,0.2376,0.2394,0.2408,0.24,0.2447,0.2451,0.2489,0.2496,0.25,0.2512,0.249,0.255,0.2556,0.2562,0.2575,0.2583,0.2495,0.2494,0.2494,0.2494,0,0.2307,0.2317,0.2323,0.2344,0.2358,0.2372,0.2393,0.241,0.242,0.2437,0.2475,0.2485,0.2514,0.2519,0.2515,0.256,0.2554,0.2553,0.2536,0.2571,0.2583,0.259,0.2496,0.2496,0.2496,0.2495,0,0,0.2295,0.2324,0.2326,0.2335,0.2367,0.2376,0.2409,0.2441,0.2464,0.2488,0.2518,0.255,0.256,0.2572,0.2575,0.2596,0.2639,0.2588,0.2589,0.2598,0.2705,0.2697,0.2704,0.265,0.2651,0.2653,0.2695,0,0.2301,0.2322,0.2339,0.2361,0.2373,0.2399,0.2426,0.2459,0.2488,0.2521,0.255,0.2579,0.258,0.2589,0.2618,0.2634,0.2661,0.2627,0.2674,0.2675,0.2661,0.2714,0.2671,0.2706,0.2702,0.2703,0.2704,0,0.2302,0.2317,0.2334,0.2363,0.2371,0.2387,0.243,0.2459,0.2519,0.2544,0.2593,0.2612,0.2656,0.2642,0.2707,0.2686,0.2701,0.2709,0.2711,0.2703,0.2682,0.2673,0.2719,0.2642,0.2715,0.2714,0.2714,0,0.2276,0.2309,0.2318,0.2329,0.2369,0.2382,0.2408,0.2465,0.2494,0.2561,0.2585,0.265,0.2672,0.2715,0.2743,0.2728,0.2804,0.2787,0.2796,0.2795,0.2768,0.2762,0.2742,0.2838,0.2838,0.2838,0.2838,0,0.2266,0.2273,0.2304,0.2308,0.2325,0.2361,0.239,0.2434,0.2494,0.2529,0.2591,0.2627,0.2692,0.2739,0.2763,0.2811,0.2831,0.2813,0.2816,0.2773,0.2767,0.2704,0.2614,0.284,0.2839,0.2839,0.2839,0,0.2232,0.2253,0.2265,0.23,0.231,0.2321,0.2372,0.2395,0.2461,0.2507,0.2526,0.2621,0.2692,0.2749,0.2818,0.2832,0.2773,0.2883,0.282,0.2815,0.2741,0.2652,0.24,0.2358,0.2899,0.29,0.29,0,0.2214,0.2216,0.2247,0.2248,0.226,0.2285,0.2301,0.2373,0.24,0.2499,0.2512,0.2604,0.2668,0.278,0.283,0.2889,0.2762,0.2872,0.284,0.2744,0.2647,0.2404,0.2371,0.2807,0.2806,0.2806,0.2805,0,0.2183,0.2192,0.2201,0.2208,0.2215,0.2226,0.2254,0.227,0.235,0.2399,0.2471,0.2534,0.2664,0.2733,0.2824,0.2851,0.2693,0.2863,0.2788,0.2596,0.2302,0.2263,0.2754,0.2801,0.2801,0.2802,0.2802,0.2802,0.2156,0.2152,0.2162,0.2161,0.2166,0.2151,0.2139,0.2179,0.2218,0.227,0.2383,0.2464,0.2633,0.2768,0.2767,0.2757,0.2634,0.2711,0.2619,0.2387,0.231,0.2784,0.2819,0.282,0.282,0.2821,0.2821,0,0.2123,0.2119,0.2114,0.2102,0.2075,0.2097,0.2093,0.2071,0.2084,0.2191,0.2259,0.2428,0.252,0.2626,0.2698,0.2574,0.2392,0.246,0.2136,0.2134,0.2615,0.2585,0.2542,0.2542,0.2542,0.2542,0.2542,0.2542,0.2106,0.2087,0.208,0.2018,0.1999,0.1936,0.1916,0.1902,0.1955,0.2029,0.2129,0.2234,0.2416,0.2446,0.2392,0.2327,0.2075,0.1866,0.1838,0.2226,0.2242,0.2258,0.2214,0.2093,0.2092,0.132,0.1314,0.1309]},{"header":{"parameterUnit":"m.s-1","parameterCategory":2,"la1":30.2991,"la2":30.254,"lo1":-89.0895,"lo2":-89.0444,"dy":0.0017,"dx":0.0017,"nx":28,"ny":28,"refTime":"2025-04-04T09:00:00:Z","depth":"0","parameterNumber":3,"parameterNumberName":"V-component_of_CURRENTS"},"data":[0,0,0,0,0,0,0,0,0,0,0,0,0,0,0,0,0,0,0,0,0,0,0,0,0,0,0,0,0,0,0,0,0,0,0,0,0,0,0,0,0,0,0,0,0,0,0,0,0,0,0,0,0,0,0,0,0,0,0.0374,0.0374,0,0.0347,0.0347,0.0346,0.0323,0.0323,0.0323,0.0323,0.0266,0.0265,0.0263,0,0,0,0,0,0,0,0,0,0,0,0,0,0.0374,0.0374,0.0374,0.0374,0.0374,0.0347,0.0346,0.0346,0.0323,0.0323,0.0323,0.0323,0.0266,0.0265,0.0263,0,0,0,0,0,0,0,0,0,0,0,0,0,0.0362,0.0374,0.0374,0.036,0.0358,0.0347,0.0346,0.0346,0.0323,0.0323,0.0323,0.0323,0.0267,0.0265,0.0263,0.0255,0,0,0.0257,0.0256,0,0,0,0,0,0,0,0,0.0363,0.0362,0.0362,0.0361,0.0359,0.0339,0.0326,0.0314,0.0323,0.0336,0.0323,0.0323,0.0288,0.0285,0.0279,0.0252,0.025,0.0256,0.0255,0.0254,0.0254,0,0,0,0,0,0,0,0.0364,0.0363,0.0362,0.0362,0.036,0.0344,0.0342,0.0323,0.0312,0.0335,0.0333,0.0332,0.0287,0.0281,0.0277,0.0249,0.0256,0.0255,0.0253,0.0253,0.0216,0.0216,0,0,0,0,0,0,0.0371,0.0364,0.0363,0.0362,0.0362,0.0344,0.0342,0.0345,0.0313,0.0309,0.0332,0.0331,0.0285,0.028,0.0275,0.0279,0.0254,0.0252,0.0251,0.0215,0.0216,0.0216,0,0,0,0,0,0,0.0371,0.0372,0.0364,0.0363,0.0361,0.0345,0.0348,0.0345,0.0341,0.0312,0.0306,0.0332,0.0284,0.0278,0.0267,0.0276,0.0251,0.025,0.0215,0.0215,0.0216,0.0277,0,0,0,0,0,0,0.0372,0.0372,0.0376,0.0363,0.0361,0.0365,0.0348,0.0344,0.034,0.0339,0.031,0.0304,0.0284,0.027,0.0265,0.0273,0.0248,0.0215,0.0215,0.0216,0.0275,0.028,0.0284,0,0,0,0,0,0.0372,0.0381,0.0376,0.0376,0.0367,0.0366,0.0363,0.035,0.0341,0.0344,0.0326,0.0305,0.0269,0.0269,0.0262,0.027,0.0214,0.0215,0.0216,0.0273,0.0279,0.0284,0,0,0,0,0,0,0.0383,0.0379,0.0374,0.0381,0.0377,0.0362,0.0363,0.0354,0.0342,0.0338,0.031,0.0304,0.0296,0.0274,0.0274,0.026,0.0237,0.0237,0.0283,0.0288,0.0293,0.0308,0.0246,0,0,0,0,0,0.0388,0.0393,0.0386,0.0392,0.0391,0.0377,0.0374,0.0366,0.0354,0.0349,0.033,0.0308,0.0293,0.0284,0.0265,0.0259,0.0241,0.0258,0.0263,0.0267,0.0274,0.0257,0.0261,0.0218,0.0218,0.0218,0,0,0.0392,0.0391,0.0394,0.0394,0.0388,0.0399,0.0375,0.0374,0.0383,0.0344,0.0347,0.0323,0.0294,0.0289,0.0283,0.0273,0.027,0.0267,0.0271,0.0277,0.0258,0.0262,0.0266,0.0218,0.0218,0.0218,0,0,0.041,0.0405,0.0418,0.0419,0.0416,0.0411,0.0415,0.0405,0.0399,0.0397,0.0373,0.0358,0.0332,0.0319,0.0308,0.0324,0.0294,0.0313,0.035,0.0333,0.0337,0.034,0.0328,0.033,0.0316,0.0316,0.0316,0,0.0417,0.0434,0.0421,0.0436,0.0444,0.0423,0.0443,0.0436,0.0424,0.0426,0.0405,0.0376,0.0349,0.035,0.0354,0.0336,0.0321,0.0335,0.034,0.0343,0.0345,0.0332,0.0333,0.0319,0.0319,0.0319,0.0318,0,0.0447,0.0461,0.0469,0.0485,0.0491,0.0503,0.0497,0.0497,0.0485,0.0481,0.0474,0.0435,0.0421,0.0406,0.0384,0.0387,0.0372,0.0349,0.0331,0.0353,0.0338,0.0338,0.0324,0.0323,0.0322,0.0321,0,0,0.0468,0.0488,0.0491,0.0511,0.0519,0.053,0.0544,0.0556,0.0576,0.0546,0.0562,0.0526,0.0504,0.0489,0.0456,0.0437,0.0435,0.0403,0.0401,0.04,0.0403,0.0428,0.043,0.0413,0.0414,0.0414,0.039,0,0.0499,0.054,0.0541,0.0584,0.0608,0.0599,0.062,0.0626,0.0623,0.0631,0.0587,0.0586,0.0537,0.053,0.0504,0.0454,0.0437,0.0444,0.0375,0.0373,0.0399,0.0431,0.0533,0.0523,0.0389,0.0389,0.0389,0,0.0534,0.0559,0.0606,0.0644,0.0654,0.0675,0.0709,0.0727,0.0729,0.0726,0.0711,0.0676,0.0647,0.0595,0.0528,0.0535,0.0478,0.0432,0.043,0.0432,0.0398,0.0477,0.0527,0.0535,0.0388,0.0388,0.0388,0,0.0565,0.0608,0.0648,0.0661,0.0697,0.0715,0.0736,0.0756,0.0787,0.0788,0.08,0.0757,0.0737,0.066,0.0566,0.0546,0.0489,0.0448,0.0417,0.0418,0.0482,0.0488,0.054,0.0402,0.0402,0.0402,0.0402,0,0.0605,0.0638,0.0665,0.0688,0.0745,0.0756,0.0817,0.0829,0.086,0.091,0.0853,0.0875,0.0752,0.0699,0.06,0.0523,0.0517,0.0438,0.0419,0.0506,0.0515,0.0503,0.0466,0.0401,0.0401,0.0401,0.0401,0,0.0636,0.0651,0.0702,0.0744,0.0761,0.0804,0.0871,0.0919,0.0936,0.0993,0.0993,0.0967,0.0913,0.0789,0.0674,0.0584,0.0514,0.0462,0.0577,0.0573,0.055,0.0511,0.049,0.0552,0.043,0.0431,0.0431,0,0.0656,0.0684,0.0742,0.0778,0.0799,0.0862,0.0911,0.0953,0.1011,0.106,0.1093,0.1058,0.1068,0.0916,0.0767,0.0622,0.0567,0.0589,0.0568,0.0583,0.0525,0.0481,0.0533,0.0674,0.0676,0.0678,0.068,0,0.0697,0.0712,0.0753,0.0827,0.0882,0.0954,0.1025,0.1083,0.114,0.12,0.1279,0.1294,0.1177,0.1118,0.0912,0.0791,0.0647,0.0624,0.0617,0.071,0.069,0.0731,0.0649,0.0698,0.0696,0.0695,0.0694,0.0693,0.0724,0.076,0.0811,0.0884,0.0948,0.1036,0.1108,0.1201,0.1312,0.1426,0.1441,0.1548,0.1448,0.1212,0.1032,0.0837,0.0774,0.0786,0.0733,0.0684,0.0767,0.0727,0.0765,0.0764,0.0763,0.0761,0.0761,0,0.0763,0.0801,0.0867,0.0952,0.1029,0.1059,0.1179,0.127,0.1417,0.1586,0.1692,0.185,0.1677,0.1465,0.1181,0.1011,0.0944,0.0907,0.0892,0.0938,0.09,0.0938,0.1046,0.1046,0.1046,0.1046,0.1046,0.1046,0.0784,0.0848,0.0881,0.1002,0.1066,0.1177,0.1252,0.1401,0.1565,0.1859,0.2081,0.2231,0.2234,0.1545,0.1208,0.1102,0.1044,0.0959,0.0926,0.0912,0.0898,0.0884,0.0916,0.1017,0.1017,0.1061,0.106,0.106]}],[{"header":{"parameterUnit":"m.s-1","parameterCategory":2,"la1":30.2991,"la2":30.254,"lo1":-89.0895,"lo2":-89.0444,"dy":0.0017,"dx":0.0017,"nx":28,"ny":28,"refTime":"2025-04-04T09:00:00:Z","depth":"2","parameterNumber":2,"parameterNumberName":"U-component_of_CURRENTS"},"data":[0,0,0,0,0,0,0,0,0,0,0,0,0,0,0,0,0,0,0,0,0,0,0,0,0,0,0,0,0,0,0,0,0,0,0,0,0,0,0,0,0,0,0,0,0,0,0,0,0,0,0,0,0,0,0,0,0,0,0.2292,0.2293,0,0.231,0.231,0.231,0.2304,0.2304,0.2303,0.2303,0.2316,0.2316,0.2317,0,0,0,0,0,0,0,0,0,0,0,0,0,0.2273,0.2274,0.2292,0.2293,0.2293,0.231,0.231,0.231,0.2304,0.2304,0.2303,0.2303,0.2315,0.2316,0.2317,0,0,0,0,0,0,0,0,0,0,0,0,0,0.2284,0.2274,0.2292,0.2293,0.2293,0.231,0.231,0.231,0.2304,0.2304,0.2303,0.2303,0.2315,0.2316,0.2317,0.2331,0,0,0.232,0.232,0,0,0,0,0,0,0,0,0.2284,0.2285,0.2292,0.2293,0.2293,0.2305,0.2308,0.2317,0.2304,0.2299,0.2303,0.2303,0.2313,0.2314,0.2317,0.2332,0.2332,0.232,0.232,0.2321,0.2321,0,0,0,0,0,0,0,0.2283,0.2284,0.2298,0.2293,0.2293,0.2299,0.23,0.231,0.2307,0.2299,0.2299,0.2303,0.2313,0.2316,0.2317,0.2333,0.232,0.232,0.2321,0.2321,0.2381,0.2382,0,0,0,0,0,0,0.2282,0.2283,0.2298,0.2299,0.2288,0.23,0.23,0.2301,0.2307,0.2308,0.2303,0.2302,0.2314,0.2316,0.2317,0.2349,0.2321,0.2321,0.2322,0.238,0.2382,0.2383,0,0,0,0,0,0,0.2282,0.2283,0.2297,0.2292,0.2295,0.23,0.2301,0.2301,0.2307,0.231,0.2311,0.2309,0.2314,0.2316,0.2333,0.2349,0.2322,0.2323,0.2379,0.2381,0.2382,0.2403,0,0,0,0,0,0,0.2281,0.2283,0.2284,0.2292,0.2295,0.231,0.2302,0.2302,0.231,0.231,0.2315,0.2316,0.2314,0.2331,0.2334,0.2349,0.2323,0.2378,0.238,0.2382,0.2401,0.2405,0.2409,0,0,0,0,0,0.228,0.2283,0.2284,0.2286,0.2296,0.231,0.2312,0.2314,0.2311,0.2317,0.2323,0.2316,0.2345,0.2333,0.2335,0.2352,0.2377,0.2379,0.2382,0.2399,0.2404,0.2408,0,0,0,0,0,0,0.2275,0.2283,0.2284,0.2289,0.23,0.2309,0.2315,0.2318,0.2327,0.2327,0.2327,0.2329,0.2352,0.2351,0.2337,0.2376,0.2361,0.2364,0.2374,0.2379,0.2382,0.2383,0.2324,0,0,0,0,0,0.2275,0.2279,0.229,0.2295,0.2301,0.231,0.2316,0.232,0.2329,0.2332,0.2337,0.2347,0.2364,0.2369,0.2382,0.2401,0.2409,0.2415,0.2418,0.2422,0.2425,0.246,0.2468,0.239,0.239,0.239,0,0,0.2273,0.228,0.2281,0.2294,0.2302,0.2317,0.2312,0.2325,0.2338,0.2333,0.2351,0.2361,0.2373,0.2396,0.2406,0.2396,0.2447,0.2425,0.2427,0.2429,0.2464,0.2471,0.2478,0.2392,0.2392,0.2392,0,0,0.2277,0.2279,0.2286,0.2298,0.2315,0.2323,0.2329,0.2343,0.2348,0.237,0.2374,0.2394,0.2413,0.2426,0.2436,0.247,0.2469,0.2474,0.249,0.2524,0.2531,0.2537,0.2551,0.2558,0.2472,0.2473,0.2473,0,0.2276,0.2284,0.2291,0.2305,0.2315,0.2328,0.2341,0.2355,0.2373,0.2387,0.2379,0.2426,0.243,0.2467,0.2475,0.2478,0.2491,0.2469,0.2529,0.2535,0.2541,0.2554,0.2561,0.2474,0.2474,0.2474,0.2473,0,0.2287,0.2296,0.2303,0.2323,0.2337,0.235,0.237,0.2388,0.2398,0.2415,0.2453,0.2464,0.2493,0.2498,0.2494,0.2539,0.2533,0.2532,0.2515,0.2549,0.2561,0.2569,0.2476,0.2475,0.2475,0.2474,0,0,0.2275,0.2303,0.2306,0.2314,0.2346,0.2354,0.2387,0.2418,0.2441,0.2465,0.2495,0.2527,0.2538,0.255,0.2553,0.2574,0.2617,0.2567,0.2568,0.2576,0.2683,0.2673,0.268,0.2628,0.263,0.2631,0.2673,0,0.2281,0.2301,0.2318,0.2339,0.235,0.2377,0.2403,0.2436,0.2464,0.2497,0.2527,0.2556,0.2557,0.2567,0.2596,0.2613,0.2639,0.2605,0.2652,0.2654,0.2637,0.269,0.2428,0.2444,0.268,0.2681,0.2682,0,0.2281,0.2296,0.2313,0.2341,0.2348,0.2365,0.2407,0.2436,0.2495,0.252,0.2569,0.2588,0.2633,0.2619,0.2684,0.2664,0.2679,0.2687,0.2689,0.2679,0.2658,0.245,0.2448,0.2694,0.2693,0.2692,0.2692,0,0.2256,0.2289,0.2297,0.2308,0.2347,0.236,0.2385,0.2442,0.2471,0.2537,0.2561,0.2626,0.2649,0.2692,0.2721,0.2706,0.2781,0.2764,0.2772,0.277,0.2557,0.2535,0.2815,0.2815,0.2815,0.2815,0.2815,0,0.2246,0.2253,0.2283,0.2287,0.2304,0.2339,0.2369,0.2412,0.2472,0.2506,0.2568,0.2604,0.2669,0.2716,0.274,0.2787,0.2808,0.2789,0.2791,0.2557,0.2536,0.2758,0.2751,0.2817,0.2816,0.2816,0.2816,0,0.2213,0.2234,0.2245,0.2279,0.2289,0.2301,0.2351,0.2374,0.244,0.2485,0.2504,0.2598,0.2669,0.2726,0.2794,0.2807,0.2849,0.2857,0.2575,0.2546,0.2805,0.2799,0.2871,0.2872,0.2872,0.2872,0.2872,0,0.2195,0.2197,0.2227,0.2229,0.2241,0.2266,0.2281,0.2353,0.2379,0.2477,0.249,0.2582,0.2638,0.2748,0.275,0.2796,0.2869,0.2616,0.2553,0.2821,0.2816,0.2809,0.2803,0.2263,0.2258,0.2254,0.2251,0,0.2164,0.2174,0.2182,0.2189,0.2197,0.2207,0.2235,0.2251,0.2329,0.2372,0.2442,0.2498,0.2583,0.2528,0.26,0.259,0.259,0.2542,0.2884,0.2313,0.2257,0.225,0.2261,0.2215,0.2219,0.2221,0.2223,0.2225,0.2138,0.2134,0.2144,0.2143,0.2148,0.2133,0.2121,0.2138,0.2168,0.2181,0.231,0.2309,0.2353,0.2335,0.2282,0.224,0.2437,0.2345,0.2351,0.2364,0.231,0.2261,0.2207,0.221,0.2213,0.2216,0.2218,0,0.2092,0.2101,0.2097,0.2084,0.2041,0.208,0.2075,0.2017,0.1994,0.2032,0.2059,0.1919,0.1892,0.1945,0.1819,0.186,0.1771,0.1801,0.1655,0.1693,0.1727,0.1635,0.1355,0.1352,0.135,0.1348,0,0,0.2072,0.2046,0.2039,0.1969,0.1963,0.1875,0.1854,0.1785,0.1766,0.1698,0.1681,0.1784,0.1894,0.1595,0.1565,0.1445,0.1546,0.1376,0.2069,0.1935,0.1965,0.2049,0.1954,0,0,0,0,0]},{"header":{"parameterUnit":"m.s-1","parameterCategory":2,"la1":30.2991,"la2":30.254,"lo1":-89.0895,"lo2":-89.0444,"dy":0.0017,"dx":0.0017,"nx":28,"ny":28,"refTime":"2025-04-04T09:00:00:Z","depth":"2","parameterNumber":3,"parameterNumberName":"V-component_of_CURRENTS"},"data":[0,0,0,0,0,0,0,0,0,0,0,0,0,0,0,0,0,0,0,0,0,0,0,0,0,0,0,0,0,0,0,0,0,0,0,0,0,0,0,0,0,0,0,0,0,0,0,0,0,0,0,0,0,0,0,0,0,0,0.0316,0.0316,0,0.029,0.0289,0.0289,0.0267,0.0267,0.0266,0.0266,0.021,0.0208,0.0207,0,0,0,0,0,0,0,0,0,0,0,0,0,0.0317,0.0317,0.0317,0.0316,0.0316,0.029,0.0289,0.0289,0.0267,0.0267,0.0266,0.0266,0.021,0.0209,0.0207,0,0,0,0,0,0,0,0,0,0,0,0,0,0.0305,0.0317,0.0317,0.0303,0.0301,0.029,0.0289,0.0289,0.0267,0.0267,0.0266,0.0266,0.0211,0.0209,0.0207,0.0198,0,0,0.02,0.02,0,0,0,0,0,0,0,0,0.0306,0.0305,0.0305,0.0304,0.0302,0.0282,0.0269,0.0257,0.0267,0.0279,0.0266,0.0266,0.0232,0.0228,0.0223,0.0196,0.0193,0.02,0.0199,0.0198,0.0198,0,0,0,0,0,0,0,0.0307,0.0306,0.0305,0.0305,0.0303,0.0287,0.0285,0.0266,0.0256,0.0278,0.0276,0.0275,0.0231,0.0225,0.0221,0.0192,0.02,0.0198,0.0197,0.0196,0.016,0.0161,0,0,0,0,0,0,0.0314,0.0307,0.0306,0.0304,0.0305,0.0287,0.0285,0.0288,0.0256,0.0252,0.0275,0.0274,0.0228,0.0223,0.0219,0.0224,0.0198,0.0196,0.0195,0.016,0.016,0.0161,0,0,0,0,0,0,0.0314,0.0315,0.0307,0.0305,0.0303,0.0288,0.0291,0.0287,0.0284,0.0255,0.025,0.0276,0.0228,0.0222,0.0211,0.0221,0.0195,0.0193,0.016,0.016,0.0161,0.0223,0,0,0,0,0,0,0.0315,0.0315,0.0319,0.0306,0.0304,0.0308,0.0291,0.0287,0.0284,0.0282,0.0253,0.0248,0.0227,0.0214,0.0209,0.0217,0.0192,0.0159,0.016,0.016,0.022,0.0225,0.0229,0,0,0,0,0,0.0315,0.0324,0.0319,0.0319,0.031,0.0308,0.0306,0.0293,0.0284,0.0288,0.027,0.0249,0.0213,0.0213,0.0207,0.0215,0.0159,0.016,0.016,0.0218,0.0224,0.0229,0,0,0,0,0,0,0.0326,0.0322,0.0317,0.0324,0.0319,0.0305,0.0306,0.0297,0.0285,0.0282,0.0254,0.0248,0.0241,0.0218,0.0219,0.0205,0.0182,0.0181,0.0228,0.0233,0.0238,0.0253,0.019,0,0,0,0,0,0.0331,0.0336,0.0329,0.0335,0.0334,0.032,0.0317,0.031,0.0298,0.0293,0.0274,0.0252,0.0238,0.0229,0.021,0.0204,0.0186,0.0204,0.0208,0.0212,0.022,0.0201,0.0205,0.0163,0.0163,0.0163,0,0,0.0336,0.0335,0.0337,0.0337,0.0331,0.0342,0.0318,0.0318,0.0327,0.0288,0.0291,0.0267,0.0239,0.0234,0.0229,0.0218,0.0215,0.0213,0.0217,0.0222,0.0202,0.0207,0.021,0.0163,0.0163,0.0163,0,0,0.0353,0.0349,0.0361,0.0362,0.036,0.0355,0.0359,0.0349,0.0343,0.0342,0.0318,0.0304,0.0278,0.0265,0.0253,0.027,0.024,0.026,0.0296,0.0279,0.0282,0.0285,0.0274,0.0275,0.0263,0.0263,0.0263,0,0.036,0.0377,0.0364,0.0379,0.0387,0.0366,0.0387,0.038,0.0368,0.0371,0.0351,0.0322,0.0295,0.0296,0.03,0.0282,0.0268,0.0281,0.0286,0.0288,0.029,0.0277,0.0278,0.0266,0.0266,0.0265,0.0265,0,0.039,0.0404,0.0412,0.0427,0.0433,0.0446,0.044,0.0441,0.0429,0.0425,0.0419,0.0381,0.0366,0.0352,0.0331,0.0333,0.0318,0.0295,0.0276,0.0299,0.0283,0.0283,0.027,0.0269,0.0268,0.0268,0,0,0.0411,0.043,0.0434,0.0453,0.0462,0.0473,0.0486,0.0499,0.0518,0.049,0.0505,0.047,0.0449,0.0434,0.0401,0.0382,0.038,0.0348,0.0346,0.0344,0.0347,0.0371,0.0372,0.0358,0.0359,0.0359,0.0333,0,0.0441,0.0482,0.0483,0.0526,0.055,0.054,0.0561,0.0567,0.0565,0.0572,0.0529,0.0529,0.0481,0.0474,0.0449,0.0399,0.0381,0.039,0.0319,0.0317,0.0341,0.0373,0.0319,0.0295,0.0333,0.0332,0.0332,0,0.0477,0.0501,0.0547,0.0585,0.0595,0.0616,0.065,0.0667,0.0669,0.0666,0.0652,0.0617,0.0588,0.0538,0.047,0.0478,0.0421,0.0376,0.0373,0.0375,0.0341,0.0276,0.0292,0.0331,0.0331,0.0331,0.0332,0,0.0508,0.0549,0.0589,0.0602,0.0638,0.0656,0.0677,0.0697,0.0727,0.0727,0.0739,0.0697,0.0677,0.06,0.0507,0.0489,0.0429,0.039,0.0358,0.0359,0.0289,0.0284,0.0343,0.0343,0.0343,0.0343,0.0343,0,0.0547,0.058,0.0606,0.063,0.0686,0.0697,0.0757,0.0769,0.08,0.0848,0.0792,0.0813,0.0691,0.0638,0.054,0.0463,0.0456,0.0378,0.0359,0.031,0.0308,0.0315,0.0313,0.0342,0.0342,0.0342,0.0342,0,0.0578,0.0593,0.0644,0.0685,0.0702,0.0745,0.0811,0.0858,0.0875,0.093,0.0931,0.0904,0.0849,0.0727,0.0611,0.0522,0.0431,0.04,0.0359,0.0338,0.0361,0.0361,0.0365,0.0366,0.0367,0.0367,0.0368,0,0.0599,0.0626,0.0684,0.072,0.0741,0.0803,0.0851,0.0893,0.0949,0.0996,0.1027,0.0992,0.0993,0.0841,0.0655,0.05,0.0478,0.0362,0.032,0.0385,0.0366,0.0365,0.0365,0.0242,0.0242,0.0241,0.0241,0,0.0639,0.0655,0.0696,0.0769,0.0823,0.0894,0.0965,0.1021,0.1076,0.1126,0.1201,0.1208,0.1056,0.0889,0.0669,0.0544,0.0383,0.0351,0.0418,0.0263,0.0271,0.0252,0.0255,0.0236,0.0237,0.0237,0.0237,0.0237,0.0667,0.0703,0.0753,0.0826,0.089,0.0975,0.1046,0.1101,0.1197,0.124,0.1291,0.127,0.1093,0.0793,0.0591,0.0359,0.04,0.0292,0.0291,0.0292,0.03,0.0311,0.0285,0.0285,0.0286,0.0287,0.0287,0,0.0693,0.0744,0.0809,0.0894,0.0949,0.0999,0.1116,0.114,0.1226,0.1272,0.1314,0.1117,0.0956,0.0753,0.0408,0.0244,0.018,0.0173,0.012,0.0127,0.0132,0.013,0.007,0.0069,0.0069,0.0068,0,0,0.071,0.0766,0.0798,0.0905,0.0982,0.1045,0.1116,0.1148,0.1179,0.1186,0.1185,0.1189,0.1007,0.0708,0.0459,0.0267,0.0227,0.0209,0.0399,0.037,0.0377,0.0215,0.0223,0,0,0,0,0]}],[{"header":{"parameterUnit":"m.s-1","parameterCategory":2,"la1":30.2991,"la2":30.254,"lo1":-89.0895,"lo2":-89.0444,"dy":0.0017,"dx":0.0017,"nx":28,"ny":28,"refTime":"2025-04-04T09:00:00:Z","depth":"4","parameterNumber":2,"parameterNumberName":"U-component_of_CURRENTS"},"data":[0,0,0,0,0,0,0,0,0,0,0,0,0,0,0,0,0,0,0,0,0,0,0,0,0,0,0,0,0,0,0,0,0,0,0,0,0,0,0,0,0,0,0,0,0,0,0,0,0,0,0,0,0,0,0,0,0,0,0.1432,0.1432,0,0.1469,0.1469,0.1469,0.151,0.1511,0.1511,0.1512,0.1584,0.1585,0.1587,0,0,0,0,0,0,0,0,0,0,0,0,0,0.1398,0.1399,0.1432,0.1432,0.1433,0.1469,0.1469,0.147,0.151,0.1511,0.1512,0.1512,0.1584,0.1585,0.1587,0,0,0,0,0,0,0,0,0,0,0,0,0,0.1421,0.1399,0.1432,0.1458,0.1461,0.1469,0.1469,0.147,0.151,0.1511,0.1512,0.1513,0.1583,0.1585,0.1587,0.158,0,0,0.1593,0.1594,0,0,0,0,0,0,0,0,0.142,0.1422,0.1453,0.1456,0.1459,0.1486,0.1484,0.1508,0.151,0.149,0.1512,0.1513,0.1554,0.1559,0.1562,0.1583,0.1586,0.1593,0.1594,0.1595,0.1596,0,0,0,0,0,0,0,0.1418,0.1421,0.1446,0.1454,0.1457,0.1468,0.1473,0.1488,0.1516,0.1492,0.1495,0.15,0.1556,0.156,0.1564,0.1587,0.1593,0.1595,0.1596,0.1597,0.1704,0.1706,0,0,0,0,0,0,0.1414,0.1419,0.1444,0.1447,0.1442,0.1468,0.1473,0.1476,0.1516,0.1523,0.1499,0.1502,0.1556,0.1562,0.1567,0.1644,0.1595,0.1597,0.1598,0.1702,0.1704,0.1706,0,0,0,0,0,0,0.1413,0.1415,0.1443,0.1435,0.1439,0.1468,0.1471,0.1476,0.1509,0.1521,0.1529,0.153,0.1557,0.1564,0.161,0.1644,0.1598,0.16,0.17,0.1703,0.1705,0.1744,0,0,0,0,0,0,0.1412,0.1415,0.1431,0.1434,0.1439,0.1466,0.147,0.1476,0.1509,0.1514,0.1549,0.1555,0.1558,0.1607,0.1612,0.1646,0.1601,0.1698,0.1702,0.1704,0.1741,0.1748,0.1753,0,0,0,0,0,0.141,0.1422,0.1431,0.1435,0.1455,0.1466,0.1471,0.1493,0.151,0.1527,0.1557,0.1556,0.1631,0.161,0.1615,0.165,0.1697,0.1701,0.1704,0.1738,0.1746,0.1753,0,0,0,0,0,0,0.1418,0.1427,0.1438,0.1453,0.1469,0.1474,0.1495,0.1509,0.1544,0.156,0.1572,0.158,0.1635,0.1637,0.1614,0.1692,0.1666,0.1671,0.169,0.1697,0.1704,0.1699,0.1603,0,0,0,0,0,0.1425,0.1439,0.1447,0.1464,0.1473,0.149,0.1504,0.1519,0.1542,0.156,0.1585,0.1617,0.1648,0.167,0.1694,0.1731,0.1734,0.176,0.1767,0.1772,0.1774,0.1814,0.1824,0.1718,0.1718,0.1718,0,0,0.1434,0.1442,0.1452,0.1468,0.1483,0.1498,0.1502,0.153,0.1554,0.1562,0.1615,0.1642,0.1665,0.1711,0.1736,0.1721,0.1803,0.1777,0.1781,0.178,0.1819,0.183,0.1839,0.1721,0.1721,0.172,0,0,0.1445,0.1465,0.1477,0.1491,0.1516,0.1525,0.1539,0.1562,0.1589,0.1633,0.1652,0.1699,0.1743,0.1766,0.1782,0.1838,0.1837,0.1855,0.1883,0.1923,0.1931,0.1939,0.1949,0.1958,0.1856,0.1857,0.1857,0,0.146,0.1469,0.1484,0.1497,0.1514,0.1539,0.1556,0.1582,0.1622,0.1651,0.1661,0.1748,0.1768,0.1824,0.1846,0.1853,0.1867,0.1849,0.193,0.1938,0.1945,0.1954,0.1962,0.1859,0.1859,0.1858,0.1858,0,0.1466,0.1488,0.1498,0.1522,0.1543,0.1564,0.1593,0.1632,0.167,0.1698,0.1774,0.1806,0.1859,0.1876,0.1878,0.1945,0.1935,0.1933,0.1906,0.1958,0.1964,0.1972,0.1862,0.1861,0.1861,0.186,0,0,0.1457,0.1495,0.1502,0.1517,0.1559,0.1571,0.1622,0.1668,0.171,0.1768,0.1823,0.1887,0.1919,0.1939,0.1957,0.199,0.2049,0.1987,0.1988,0.1988,0.2125,0.1986,0.1982,0.2067,0.2069,0.207,0.2105,0,0.1461,0.1484,0.1507,0.1541,0.1554,0.1599,0.1641,0.1694,0.1748,0.181,0.1866,0.1929,0.1938,0.1975,0.2013,0.2043,0.2074,0.2038,0.2082,0.2082,0.1947,0.1988,0.2077,0.2111,0.2113,0.2114,0.2115,0,0.145,0.1469,0.1499,0.1547,0.1559,0.1592,0.1666,0.171,0.1801,0.1849,0.1928,0.197,0.2043,0.2037,0.2121,0.2101,0.212,0.2133,0.2135,0.1996,0.1959,0.2052,0.213,0.2129,0.2128,0.2127,0.2126,0,0.1414,0.1461,0.1486,0.1502,0.1562,0.16,0.1645,0.1731,0.1778,0.1885,0.1929,0.2022,0.2074,0.2124,0.2161,0.2154,0.2231,0.2221,0.2112,0.2102,0.2198,0.2189,0.2277,0.2277,0.2277,0.2277,0.2276,0,0.1387,0.1411,0.1477,0.1489,0.1533,0.1588,0.1653,0.1715,0.1809,0.186,0.1954,0.1998,0.2103,0.2154,0.218,0.2164,0.2253,0.2117,0.2105,0.2212,0.2205,0.2203,0.2194,0.2278,0.2278,0.2277,0.2277,0,0.1337,0.1381,0.1413,0.1487,0.1515,0.1551,0.1649,0.1689,0.179,0.1858,0.1894,0.2006,0.2067,0.2138,0.2213,0.2168,0.2177,0.215,0.225,0.2244,0.2014,0.2007,0.2023,0.2019,0.2015,0.2012,0.2009,0,0.1309,0.1321,0.1403,0.1425,0.1464,0.1529,0.1568,0.1674,0.1713,0.184,0.1855,0.1955,0.2014,0.2003,0.2094,0.2122,0.2107,0.2088,0.2055,0.2003,0.1991,0.199,0.1988,0.2003,0.2002,0.2001,0.2,0,0.1255,0.1299,0.1328,0.1374,0.1418,0.1454,0.152,0.1536,0.1646,0.1749,0.1772,0.1804,0.1863,0.1918,0.1951,0.1972,0.2086,0.2048,0.2056,0.2024,0.1978,0.197,0.1973,0.1987,0.1989,0.199,0.1991,0,0.1224,0.1231,0.1277,0.1304,0.1356,0.1359,0.1403,0.1435,0.1485,0.1617,0.1624,0.173,0.1838,0.1841,0.1875,0.1879,0.1857,0.1797,0.1817,0.1833,0.1757,0.167,0.1573,0,0,0,0,0,0.1182,0.1177,0.1199,0.1219,0.1264,0.129,0.1358,0.1402,0.1504,0.1477,0.1545,0.159,0.1631,0.1697,0.1666,0.1806,0.1872,0.1762,0.1815,0.1913,0.1928,0.1857,0,0,0,0,0,0,0.1152,0.1174,0.117,0.114,0.1139,0.1171,0.1207,0.1272,0.1263,0.1377,0.1412,0.1498,0.1571,0.1637,0.1639,0.1658,0.1658,0.1837,0.1833,0.1904,0.1918,0.1931,0.1863,0,0,0,0,0]},{"header":{"parameterUnit":"m.s-1","parameterCategory":2,"la1":30.2991,"la2":30.254,"lo1":-89.0895,"lo2":-89.0444,"dy":0.0017,"dx":0.0017,"nx":28,"ny":28,"refTime":"2025-04-04T09:00:00:Z","depth":"4","parameterNumber":3,"parameterNumberName":"V-component_of_CURRENTS"},"data":[0,0,0,0,0,0,0,0,0,0,0,0,0,0,0,0,0,0,0,0,0,0,0,0,0,0,0,0,0,0,0,0,0,0,0,0,0,0,0,0,0,0,0,0,0,0,0,0,0,0,0,0,0,0,0,0,0,0,0.0033,0.0033,0,0.0024,0.0024,0.0024,0.0005,0.0005,0.0005,0.0004,-0.0033,-0.0034,-0.0035,0,0,0,0,0,0,0,0,0,0,0,0,0,0.0032,0.0032,0.0033,0.0033,0.0033,0.0024,0.0024,0.0024,0.0005,0.0005,0.0005,0.0004,-0.0033,-0.0034,-0.0035,0,0,0,0,0,0,0,0,0,0,0,0,0,0.0028,0.0032,0.0033,0.0023,0.0022,0.0024,0.0024,0.0024,0.0005,0.0005,0.0004,0.0004,-0.0033,-0.0034,-0.0035,-0.0031,0,0,-0.0038,-0.0039,0,0,0,0,0,0,0,0,0.0028,0.0028,0.0025,0.0024,0.0023,0.0016,0.001,0.0004,0.0006,0.0011,0.0004,0.0004,-0.0019,-0.0021,-0.0022,-0.0033,-0.0035,-0.0038,-0.0039,-0.0039,-0.004,0,0,0,0,0,0,0,0.0029,0.0028,0.0029,0.0025,0.0024,0.0018,0.0017,0.0008,-0.0002,0.0011,0.001,0.0009,-0.002,-0.0021,-0.0023,-0.0035,-0.0038,-0.0039,-0.004,-0.004,-0.0034,-0.0033,0,0,0,0,0,0,0.0031,0.0029,0.003,0.0029,0.0025,0.0018,0.0017,0.0018,-0.0001,-0.0004,0.001,0.0009,-0.0019,-0.0022,-0.0025,-0.0005,-0.0039,-0.004,-0.0041,-0.0035,-0.0034,-0.0033,0,0,0,0,0,0,0.0031,0.0032,0.003,0.0029,0.0028,0.0019,0.002,0.0018,0.0018,-0.0001,-0.0005,0.0012,-0.0019,-0.0023,-0.0021,-0.0007,-0.0041,-0.0042,-0.0036,-0.0035,-0.0034,0.0024,0,0,0,0,0,0,0.0031,0.0032,0.0035,0.0029,0.0028,0.0036,0.0021,0.0018,0.0019,0.0017,-0.0001,-0.0005,-0.002,-0.0019,-0.0022,-0.0009,-0.0042,-0.0037,-0.0035,-0.0034,0.0021,0.0027,0.0032,0,0,0,0,0,0.0031,0.0038,0.0035,0.0035,0.0033,0.0037,0.0036,0.0028,0.002,0.0025,0.0017,-0.0004,-0.0012,-0.0019,-0.0023,-0.001,-0.0038,-0.0036,-0.0034,0.0018,0.0026,0.0032,0,0,0,0,0,0,0.0038,0.0037,0.0033,0.0039,0.004,0.0034,0.0037,0.0032,0.003,0.0027,0.0007,0.0003,0.001,-0.0007,-0.0014,-0.0004,-0.0029,-0.0028,0.0012,0.0018,0.0024,0.0027,-0.0043,0,0,0,0,0,0.0042,0.0047,0.0045,0.005,0.0052,0.0046,0.0046,0.0042,0.0039,0.0037,0.0027,0.0017,0.0015,0.0011,0.0004,0.0011,-0.0011,0.0016,0.0022,0.0026,0.0027,0.001,0.0014,-0.0027,-0.0027,-0.0027,0,0,0.0045,0.0046,0.0048,0.0052,0.0051,0.0064,0.0045,0.005,0.0063,0.0033,0.0048,0.0036,0.0021,0.0031,0.0031,0.0018,0.0028,0.0029,0.0033,0.0031,0.0012,0.0016,0.002,-0.0026,-0.0026,-0.0027,0,0,0.0057,0.0056,0.0066,0.0072,0.0076,0.0077,0.0081,0.0081,0.0082,0.0094,0.0078,0.0077,0.0072,0.0066,0.0062,0.0092,0.0058,0.0089,0.012,0.0104,0.0107,0.0109,0.0091,0.0091,0.0092,0.0092,0.0092,0,0.0062,0.0075,0.007,0.0084,0.0095,0.0087,0.0106,0.0109,0.0111,0.0118,0.0105,0.0105,0.009,0.0102,0.0113,0.0105,0.0088,0.0097,0.0111,0.0113,0.0114,0.0094,0.0094,0.0095,0.0095,0.0094,0.0094,0,0.0083,0.0097,0.0105,0.0123,0.0134,0.0148,0.0156,0.0166,0.0167,0.017,0.0181,0.0163,0.0161,0.0158,0.0145,0.0154,0.0136,0.012,0.0094,0.0122,0.0099,0.0098,0.0099,0.0098,0.0097,0.0096,0,0,0.0088,0.0115,0.0119,0.0137,0.0157,0.017,0.0195,0.0217,0.0239,0.0233,0.0252,0.0246,0.0232,0.0226,0.0207,0.0192,0.019,0.0164,0.0162,0.0146,0.0153,0.014,0.0136,0.0176,0.0176,0.0176,0.0134,0,0.0108,0.0143,0.0153,0.0195,0.0216,0.0224,0.0253,0.0272,0.0283,0.03,0.0279,0.029,0.026,0.0261,0.0243,0.0205,0.0188,0.0202,0.0128,0.0126,0.011,0.0135,0.0176,0.0133,0.0133,0.0132,0.0132,0,0.0129,0.0152,0.0192,0.0237,0.0248,0.0275,0.032,0.0345,0.0366,0.0373,0.0373,0.0355,0.0341,0.0306,0.0252,0.0263,0.0213,0.0176,0.0173,0.0139,0.011,0.0098,0.0129,0.0129,0.013,0.013,0.013,0,0.0137,0.0181,0.0217,0.0231,0.0279,0.0303,0.0333,0.0368,0.0401,0.0419,0.0434,0.0412,0.0404,0.0342,0.0268,0.0261,0.0198,0.0176,0.0116,0.0114,0.0111,0.0109,0.0131,0.0131,0.0131,0.0131,0.0131,0,0.0156,0.0186,0.0225,0.0246,0.03,0.0326,0.0387,0.0411,0.0453,0.0493,0.0473,0.0486,0.0412,0.0366,0.0288,0.0203,0.0213,0.0125,0.0105,0.0137,0.0138,0.011,0.0108,0.013,0.013,0.013,0.0131,0,0.0163,0.0185,0.0231,0.0283,0.0306,0.0346,0.0424,0.0466,0.0501,0.0547,0.0553,0.0546,0.0493,0.0408,0.0312,0.0236,0.0149,0.0112,0.0159,0.0142,0.0068,0.007,0.0043,0.0042,0.0041,0.0041,0.0041,0,0.017,0.0192,0.0255,0.0287,0.0315,0.0379,0.0426,0.0484,0.0531,0.0581,0.0598,0.0573,0.0547,0.0413,0.0317,0.0172,0.0142,0.0089,0.0072,0.0077,0.006,0.0063,0.0065,0.004,0.0039,0.0039,0.0039,0,0.0184,0.0203,0.024,0.0303,0.0356,0.0421,0.049,0.0526,0.059,0.0617,0.0639,0.0579,0.0521,0.0419,0.0311,0.0201,0.0121,0.0081,0.0082,0.0065,0.0072,0.0057,0.006,0.0037,0.0037,0.0037,0.0037,0,0.0193,0.0216,0.026,0.0318,0.0381,0.0441,0.0483,0.0541,0.0591,0.0642,0.0648,0.0594,0.0575,0.0434,0.0333,0.023,0.0191,0.0134,0.0131,0.0132,0.0165,0.0188,0.0177,0,0,0,0,0,0.02,0.0222,0.0273,0.0333,0.0395,0.0433,0.0515,0.0555,0.061,0.0626,0.0643,0.0589,0.0465,0.0426,0.032,0.0297,0.0157,0.0165,0.0086,0.0025,0.0027,0.0049,0,0,0,0,0,0,0.0202,0.0242,0.0265,0.0332,0.0373,0.0445,0.0496,0.0538,0.0558,0.0598,0.0546,0.0535,0.0424,0.0521,0.0309,0.0281,0.0208,0.0119,0.0116,0.0023,0.0025,0.0027,0.0051,0,0,0,0,0]}]]